Aérodrome :
LOGIN :

S'inscrire | Disclaimer

   EN    FR    IT 

 










Légende :    VFR   VFR Marginal   IFR   IFR Intensif   IFR Très Intensif
Visi : 
Plafond : 
>= 8 km
>= 3000ft
5 à 8 km
1000 à 3000 ft
1500m à 5 km
500 à 1000 ft
800 à 1500m
200 à 500 ft
< 800m
< 200 ft
Symboles :   Orages  Brouillard  Fortes neiges  Fortes précipitations  Vent > 20 kt
SIGMETs :   Divers  Orages  Givrage  Turbulence  Onde Orograph.  Cendres Volcan.







- Altitude de l'aérodrome : 386 ft
- Code IATA : QOE


ETNN - Nörvenich Airforce Base

DERNIER METAR :
  • 101320Z 31010G23KT 9000 SHRA SCT010TCU FEW020CB BKN025 05/03 Q1021 BLU BLU TEMPO GRN

METARs EXPIRÉS :
  • 101220Z 29015KT 9999 -SHRA SCT018TCU BKN035 06/03 Q1021 BLU BLU TEMPO GRN
  • 101120Z 28015KT 9999 FEW015TCU SCT030 BKN050 05/04 Q1021 BLU BLU TEMPO GRN

TAF TAF ETNN
Valide du 10 à 12h jusqu'au 10 à 21h UTC


101110Z 1012/1021 29012G22KT 9999 NSW SCT020 BKN050
TEMPO 1012/1018 32020G32KT 4000 SHRA BKN012TCU BY ETGL
Pas de NOTAMs connus pour ce terrain.



MET'MAP, la Météo Aéronautique d'un coup d'oeil ! - Copyright ORBIFLY Décembre 2007 - Disclaimer

ORBIFLY MET'MAP TEAM :

Programmation & Développement : Alexandra Zaïnal
Conception & Développement : Baudouin d'Aumeries
Co-Programmation & Développement : Marc-Olivier Méhu
Soutien technique & logistique : Manuel Goepfert

Contact : metmap@orbifly.com




SOURCES & CREDITS :

   NOAA